[[{"header":{"parameterUnit":"m.s-1","parameterCategory":2,"la1":30.2991,"la2":30.254,"lo1":-89.0895,"lo2":-89.0444,"dy":0.0017,"dx":0.0017,"nx":28,"ny":28,"refTime":"2023-08-26T09:00:00:Z","depth":"0","parameterNumber":2,"parameterNumberName":"U-component_of_CURRENTS"},"data":[0,0,0,0,0,0,0,0,0,0,0,0,0,0,0,0,0,0,0,0,0,0,0,0,0,0,0,0,0,0,0,0,0,0,0,0,0,0,0,0,0,0,0,0,0,0,0,0,0,0,0,0,0,0,0,0,0,0,0.1803,0.1802,0,0.174,0.1739,0.1738,0.1646,0.1644,0.1643,0.1642,0.1549,0.1547,0.1546,0,0,0,0,0,0,0,0,0,0,0,0,0,0.1786,0.1786,0.1803,0.1802,0.1802,0.174,0.1739,0.1737,0.1646,0.1644,0.1643,0.1641,0.1549,0.1547,0.1546,0,0,0,0,0,0,0,0,0,0,0,0,0,0.1761,0.1787,0.1803,0.1752,0.1747,0.174,0.1738,0.1737,0.1646,0.1644,0.1642,0.1641,0.155,0.1548,0.1546,0.1571,0,0,0.154,0.1539,0,0,0,0,0,0,0,0,0.1763,0.1762,0.176,0.1755,0.175,0.1702,0.1698,0.1681,0.1647,0.168,0.1642,0.164,0.1601,0.1595,0.1582,0.1567,0.1563,0.1539,0.1538,0.1537,0.1537,0,0,0,0,0,0,0,0.1765,0.1764,0.1774,0.1759,0.1753,0.1712,0.1707,0.1694,0.1648,0.1677,0.1671,0.1671,0.1597,0.1584,0.1579,0.1561,0.154,0.1538,0.1537,0.1536,0.1656,0.166,0,0,0,0,0,0,0.1786,0.1766,0.1776,0.1772,0.1756,0.1714,0.1708,0.1716,0.1649,0.1638,0.1673,0.1667,0.1588,0.1581,0.1575,0.1659,0.1537,0.1536,0.1534,0.1651,0.1657,0.1661,0,0,0,0,0,0,0.1786,0.1788,0.1778,0.177,0.1766,0.1717,0.1727,0.1716,0.1712,0.1647,0.1634,0.1681,0.1587,0.1578,0.16,0.1652,0.1535,0.1533,0.1646,0.1653,0.1659,0.1789,0,0,0,0,0,0,0.1786,0.1788,0.1806,0.1772,0.1768,0.1801,0.1728,0.1716,0.1716,0.1708,0.165,0.1638,0.1585,0.1603,0.1598,0.1647,0.1531,0.1641,0.1649,0.1657,0.1779,0.1799,0.1816,0,0,0,0,0,0.1786,0.1817,0.1807,0.1808,0.1792,0.1804,0.1799,0.1754,0.1718,0.1738,0.1707,0.164,0.1652,0.1605,0.1598,0.1648,0.1637,0.1647,0.1656,0.1771,0.1795,0.1816,0,0,0,0,0,0,0.1808,0.181,0.1798,0.1826,0.183,0.1791,0.1803,0.1775,0.1764,0.1757,0.1685,0.1674,0.1716,0.1681,0.1631,0.1715,0.1639,0.1647,0.1729,0.1751,0.1769,0.1764,0.153,0,0,0,0,0,0.1829,0.1856,0.1849,0.1874,0.1883,0.185,0.1849,0.1827,0.181,0.1801,0.1765,0.1746,0.1753,0.1749,0.1745,0.1784,0.1829,0.1821,0.1839,0.1855,0.1852,0.202,0.2053,0.1694,0.1694,0.1693,0,0,0.1837,0.1849,0.1858,0.1882,0.1876,0.1901,0.1844,0.1864,0.188,0.1797,0.1817,0.1808,0.1783,0.1827,0.1844,0.1799,0.1989,0.1867,0.188,0.1868,0.2034,0.2069,0.21,0.17,0.1699,0.1698,0,0,0.1876,0.1892,0.1927,0.1945,0.1965,0.1954,0.1971,0.196,0.1954,0.1984,0.194,0.1972,0.1961,0.1962,0.1959,0.2086,0.2087,0.2092,0.2168,0.2333,0.2363,0.239,0.2521,0.2559,0.2095,0.2096,0.2096,0,0.1885,0.1927,0.1939,0.1982,0.1993,0.1987,0.2018,0.2029,0.2025,0.2032,0.2012,0.2053,0.2027,0.2091,0.2129,0.2124,0.2214,0.2074,0.2357,0.2385,0.241,0.2537,0.2578,0.2103,0.2102,0.2102,0.2101,0,0.1945,0.1981,0.2009,0.2058,0.2082,0.2115,0.2133,0.216,0.2156,0.2155,0.2225,0.2226,0.2248,0.2262,0.2221,0.2385,0.2391,0.2367,0.2294,0.2454,0.2578,0.2618,0.2114,0.2111,0.2109,0.2107,0,0,0.1944,0.203,0.2037,0.2058,0.2121,0.2134,0.2199,0.2236,0.2267,0.2308,0.2372,0.2405,0.2418,0.2419,0.2412,0.2531,0.2789,0.2528,0.2533,0.2647,0.3165,0.3144,0.3184,0.2835,0.2842,0.2847,0.3188,0,0.1977,0.2052,0.2092,0.2148,0.218,0.221,0.2262,0.2302,0.234,0.2413,0.2462,0.2523,0.248,0.2514,0.264,0.2743,0.2896,0.2698,0.3001,0.3009,0.2962,0.323,0.3161,0.3457,0.3226,0.3233,0.3237,0,0.2013,0.2056,0.2115,0.2175,0.2191,0.2224,0.2289,0.2334,0.2442,0.249,0.2588,0.2635,0.2796,0.2755,0.3059,0.2947,0.3077,0.316,0.3176,0.3128,0.3061,0.3257,0.3537,0.3467,0.3297,0.3293,0.3288,0,0.1981,0.2064,0.2101,0.2125,0.2203,0.2223,0.2254,0.2341,0.2405,0.255,0.2649,0.2816,0.2943,0.3139,0.3291,0.3224,0.3639,0.3569,0.3678,0.3676,0.3657,0.3642,0.3888,0.3838,0.3837,0.3837,0.3836,0,0.1993,0.2015,0.208,0.2097,0.213,0.2188,0.2252,0.2305,0.2454,0.2565,0.2687,0.2838,0.306,0.329,0.3409,0.3682,0.376,0.3757,0.3797,0.3702,0.3687,0.3647,0.3569,0.3849,0.3846,0.3844,0.3842,0,0.1946,0.2001,0.2029,0.2096,0.2115,0.2123,0.2241,0.2313,0.2446,0.2619,0.2692,0.2947,0.3238,0.3444,0.3776,0.3849,0.4003,0.4144,0.3993,0.4008,0.3996,0.3925,0.4037,0.3907,0.4355,0.4357,0.4359,0,0.193,0.1945,0.1998,0.2018,0.2042,0.2089,0.2151,0.2285,0.239,0.2671,0.2776,0.3097,0.3306,0.3774,0.398,0.4263,0.411,0.4347,0.4191,0.4056,0.401,0.3787,0.3649,0.4241,0.4242,0.4242,0.4243,0,0.1891,0.1905,0.1932,0.1987,0.2034,0.2095,0.2191,0.2274,0.2466,0.2624,0.2863,0.3045,0.3496,0.3768,0.413,0.4271,0.4151,0.4363,0.4307,0.4031,0.3729,0.3599,0.3917,0.4247,0.4247,0.4246,0.4246,0.4246,0.1859,0.1873,0.1938,0.1977,0.203,0.2107,0.2138,0.2273,0.2421,0.2644,0.2846,0.3098,0.3566,0.4055,0.4157,0.4337,0.4197,0.4309,0.427,0.4082,0.3845,0.4147,0.4445,0.4445,0.4446,0.4447,0.4447,0,0.1892,0.1927,0.1947,0.2008,0.2046,0.2092,0.2192,0.2227,0.2344,0.2582,0.2774,0.326,0.3619,0.396,0.4349,0.4298,0.4052,0.4206,0.3898,0.3788,0.4195,0.4074,0.4202,0.4202,0.4203,0.4203,0.4203,0.4203,0.1934,0.1986,0.2001,0.2047,0.2066,0.211,0.2143,0.2175,0.2302,0.2533,0.2782,0.3037,0.3579,0.4178,0.4358,0.4269,0.3922,0.3792,0.3686,0.4006,0.401,0.4014,0.3885,0.3973,0.3972,0.3141,0.3136,0.3131]},{"header":{"parameterUnit":"m.s-1","parameterCategory":2,"la1":30.2991,"la2":30.254,"lo1":-89.0895,"lo2":-89.0444,"dy":0.0017,"dx":0.0017,"nx":28,"ny":28,"refTime":"2023-08-26T09:00:00:Z","depth":"0","parameterNumber":3,"parameterNumberName":"V-component_of_CURRENTS"},"data":[0,0,0,0,0,0,0,0,0,0,0,0,0,0,0,0,0,0,0,0,0,0,0,0,0,0,0,0,0,0,0,0,0,0,0,0,0,0,0,0,0,0,0,0,0,0,0,0,0,0,0,0,0,0,0,0,0,0,-0.0422,-0.0422,0,-0.0357,-0.0356,-0.0356,-0.0299,-0.0298,-0.0298,-0.0297,-0.0201,-0.0198,-0.0196,0,0,0,0,0,0,0,0,0,0,0,0,0,-0.0457,-0.0457,-0.0422,-0.0422,-0.0421,-0.0358,-0.0356,-0.0355,-0.0299,-0.0298,-0.0298,-0.0297,-0.0201,-0.0199,-0.0196,0,0,0,0,0,0,0,0,0,0,0,0,0,-0.042,-0.0457,-0.0423,-0.0387,-0.0384,-0.0358,-0.0356,-0.0355,-0.0299,-0.0298,-0.0297,-0.0297,-0.0202,-0.0199,-0.0196,-0.0188,0,0,-0.0186,-0.0184,0,0,0,0,0,0,0,0,-0.0422,-0.0418,-0.0393,-0.039,-0.0385,-0.0338,-0.0333,-0.0299,-0.0299,-0.0328,-0.0297,-0.0297,-0.0246,-0.0239,-0.0225,-0.0184,-0.018,-0.0185,-0.0183,-0.0182,-0.0181,0,0,0,0,0,0,0,-0.0425,-0.0421,-0.0394,-0.0392,-0.0388,-0.0361,-0.0355,-0.0326,-0.0289,-0.0326,-0.0322,-0.0319,-0.0243,-0.0228,-0.0222,-0.0178,-0.0186,-0.0183,-0.0181,-0.0179,-0.0149,-0.015,0,0,0,0,0,0,-0.0441,-0.0423,-0.0396,-0.0392,-0.0405,-0.0361,-0.0354,-0.0352,-0.029,-0.0281,-0.032,-0.0317,-0.0234,-0.0226,-0.0218,-0.0197,-0.0182,-0.0179,-0.0177,-0.0148,-0.0149,-0.015,0,0,0,0,0,0,-0.0442,-0.0439,-0.0399,-0.0408,-0.0402,-0.0362,-0.0359,-0.0351,-0.034,-0.0286,-0.0275,-0.0318,-0.0233,-0.0223,-0.0201,-0.0193,-0.0178,-0.0175,-0.0146,-0.0148,-0.015,-0.0161,0,0,0,0,0,0,-0.0443,-0.044,-0.0442,-0.041,-0.0402,-0.0382,-0.0359,-0.035,-0.034,-0.0335,-0.0281,-0.0271,-0.0232,-0.0206,-0.0198,-0.0189,-0.0172,-0.0145,-0.0147,-0.0149,-0.0159,-0.0162,-0.0166,0,0,0,0,0,-0.0444,-0.0438,-0.0443,-0.044,-0.0407,-0.0382,-0.0375,-0.0343,-0.0341,-0.0332,-0.0306,-0.0273,-0.0214,-0.0204,-0.0194,-0.0184,-0.0144,-0.0147,-0.0149,-0.0157,-0.0162,-0.0166,0,0,0,0,0,0,-0.0439,-0.0431,-0.0435,-0.0424,-0.0411,-0.0373,-0.036,-0.0353,-0.0327,-0.0323,-0.0281,-0.0269,-0.0247,-0.0227,-0.0218,-0.0188,-0.0176,-0.0177,-0.0186,-0.019,-0.0194,-0.0146,-0.0169,0,0,0,0,0,-0.0448,-0.0448,-0.0435,-0.0426,-0.0423,-0.0401,-0.039,-0.0374,-0.0348,-0.0335,-0.0303,-0.0276,-0.0251,-0.023,-0.0205,-0.0185,-0.012,-0.0178,-0.0181,-0.0184,-0.0143,-0.0049,-0.0038,-0.0159,-0.0159,-0.0159,0,0,-0.044,-0.0439,-0.0436,-0.0427,-0.0413,-0.0395,-0.0391,-0.0374,-0.0355,-0.033,-0.0296,-0.0285,-0.0252,-0.0226,-0.0215,-0.0205,-0.0124,-0.0187,-0.0189,-0.0146,-0.005,-0.0038,-0.0026,-0.0161,-0.016,-0.016,0,0,-0.0419,-0.043,-0.0421,-0.0414,-0.0406,-0.0395,-0.0398,-0.0375,-0.036,-0.034,-0.0321,-0.0305,-0.0268,-0.0235,-0.0216,-0.0228,-0.0149,-0.0236,-0.02,-0.0111,-0.0099,-0.0087,-0.0011,0.0009,-0.0232,-0.0232,-0.0232,0,-0.0407,-0.0401,-0.0412,-0.04,-0.0388,-0.0398,-0.0377,-0.0365,-0.0338,-0.0311,-0.0331,-0.0258,-0.0263,-0.0195,-0.0216,-0.0229,-0.0162,-0.0183,-0.0109,-0.0096,-0.0083,-0.0008,0.0014,-0.0233,-0.0233,-0.0233,-0.0233,0,-0.0376,-0.0375,-0.0367,-0.0361,-0.0351,-0.0337,-0.033,-0.0318,-0.0318,-0.0292,-0.0239,-0.0235,-0.0169,-0.0205,-0.0216,-0.0138,-0.0116,-0.0125,-0.0086,-0.0071,0.0006,0.0028,-0.0234,-0.0234,-0.0234,-0.0233,0,0,-0.0331,-0.0344,-0.0339,-0.0325,-0.0331,-0.0305,-0.0292,-0.0255,-0.0184,-0.0201,-0.0088,-0.013,-0.0102,-0.0081,-0.009,-0.005,0.0042,-0.0053,-0.0048,0.0047,0.0255,0.0184,0.0202,0.0061,0.0066,0.0069,0.0266,0,-0.0299,-0.028,-0.0291,-0.0251,-0.0237,-0.024,-0.0204,-0.0172,-0.0129,-0.0021,-0.0028,0.0074,-0.0058,0.0009,0.0014,0.0079,0.0106,-0.0009,0.0207,0.0214,0.017,0.0227,0.0166,0.0331,0.0288,0.0292,0.0295,0,-0.0258,-0.0253,-0.0227,-0.0183,-0.017,-0.014,-0.0048,-0.0009,0.0101,0.0158,0.0232,0.0274,0.0343,0.0237,0.0329,0.0275,0.0257,0.0263,0.0271,0.0239,0.0186,0.0311,0.0374,0.0099,0.033,0.0327,0.0325,0,-0.022,-0.0193,-0.0173,-0.0164,-0.0125,-0.0087,-0.0047,0.0047,0.0166,0.0319,0.0479,0.0516,0.0649,0.0613,0.0572,0.0494,0.0692,0.0597,0.0505,0.05,0.051,0.0498,0.0362,0.0652,0.0651,0.0651,0.065,0,-0.0184,-0.0155,-0.0146,-0.0127,-0.0035,-0.0028,0.0129,0.0184,0.0378,0.0608,0.0601,0.0829,0.076,0.0848,0.0718,0.0709,0.0812,0.0552,0.0562,0.0495,0.048,0.029,0.0124,0.0658,0.0656,0.0655,0.0654,0,-0.0145,-0.0156,-0.0105,-0.0056,-0.0021,0.0053,0.0255,0.0426,0.0559,0.0887,0.0975,0.1152,0.1256,0.1145,0.1158,0.0964,0.0763,0.0862,0.0771,0.0763,0.035,0.0187,0.0179,0.0029,0.0809,0.0809,0.0809,0,-0.0124,-0.0109,-0.004,0.0048,0.008,0.021,0.0359,0.0503,0.0738,0.1109,0.1328,0.1505,0.1693,0.1641,0.1317,0.1108,0.0821,0.0877,0.0667,0.0349,0.0178,0.0096,-0.0038,0.0682,0.0681,0.068,0.0679,0,-0.0046,-0.0033,0.0028,0.0199,0.0349,0.0531,0.0759,0.0961,0.122,0.149,0.1888,0.2058,0.1983,0.1777,0.1418,0.1207,0.0636,0.0844,0.0573,0.0117,-0.0026,-0.0173,0.0511,0.0669,0.067,0.0671,0.0671,0.0672,0.0055,0.014,0.0265,0.0435,0.0614,0.0904,0.1096,0.1376,0.1735,0.2171,0.2274,0.2541,0.2151,0.1658,0.1303,0.055,0.0573,0.0301,0.0156,0.0124,-0.0118,0.0518,0.0628,0.0629,0.0629,0.063,0.063,0,0.029,0.0399,0.0541,0.0787,0.1034,0.1077,0.1439,0.1656,0.2071,0.2403,0.2693,0.267,0.2084,0.1456,0.0472,-0.0038,-0.024,-0.0321,-0.0475,-0.0565,0.0072,-0.0043,-0.0144,-0.0144,-0.0144,-0.0143,-0.0143,-0.0143,0.0461,0.0676,0.0747,0.1172,0.1334,0.1682,0.1886,0.215,0.2397,0.2796,0.2966,0.3083,0.2636,0.0899,-0.0376,-0.0694,-0.1078,-0.1109,-0.1291,-0.0928,-0.0882,-0.0839,-0.0987,-0.1284,-0.1286,-0.1883,-0.189,-0.1895]}],[{"header":{"parameterUnit":"m.s-1","parameterCategory":2,"la1":30.2991,"la2":30.254,"lo1":-89.0895,"lo2":-89.0444,"dy":0.0017,"dx":0.0017,"nx":28,"ny":28,"refTime":"2023-08-26T09:00:00:Z","depth":"2","parameterNumber":2,"parameterNumberName":"U-component_of_CURRENTS"},"data":[0,0,0,0,0,0,0,0,0,0,0,0,0,0,0,0,0,0,0,0,0,0,0,0,0,0,0,0,0,0,0,0,0,0,0,0,0,0,0,0,0,0,0,0,0,0,0,0,0,0,0,0,0,0,0,0,0,0,0.1742,0.1743,0,0.1774,0.1774,0.1774,0.1758,0.1757,0.1756,0.1756,0.1701,0.17,0.17,0,0,0,0,0,0,0,0,0,0,0,0,0,0.1656,0.1657,0.1742,0.1743,0.1743,0.1774,0.1774,0.1774,0.1758,0.1757,0.1756,0.1755,0.1702,0.17,0.1699,0,0,0,0,0,0,0,0,0,0,0,0,0,0.1689,0.1658,0.1742,0.174,0.1741,0.1774,0.1774,0.1774,0.1758,0.1757,0.1756,0.1755,0.1702,0.1701,0.1699,0.171,0,0,0.1695,0.1695,0,0,0,0,0,0,0,0,0.1687,0.1692,0.174,0.1741,0.1741,0.1763,0.1724,0.1749,0.1758,0.1749,0.1756,0.1755,0.1716,0.1714,0.1719,0.1708,0.1705,0.1695,0.1694,0.1694,0.1694,0,0,0,0,0,0,0,0.1685,0.169,0.1752,0.1741,0.1742,0.1735,0.1738,0.1729,0.1734,0.175,0.1749,0.1757,0.1715,0.1721,0.1718,0.1704,0.1695,0.1694,0.1693,0.1693,0.1753,0.1756,0,0,0,0,0,0,0.1688,0.1688,0.1751,0.1753,0.1714,0.1737,0.1741,0.1755,0.1736,0.1734,0.1758,0.1756,0.1724,0.1719,0.1716,0.1777,0.1694,0.1693,0.1692,0.1751,0.1754,0.1757,0,0,0,0,0,0,0.1686,0.1693,0.175,0.1723,0.173,0.174,0.1756,0.1756,0.177,0.1743,0.1738,0.1772,0.1723,0.1718,0.173,0.1773,0.1692,0.1691,0.1748,0.1752,0.1755,0.1868,0,0,0,0,0,0,0.1683,0.1692,0.1707,0.1723,0.1732,0.1785,0.1757,0.1757,0.1777,0.1775,0.1754,0.1748,0.1721,0.1732,0.1729,0.1769,0.169,0.1745,0.175,0.1754,0.1861,0.1875,0.1887,0,0,0,0,0,0.168,0.1705,0.1707,0.1715,0.175,0.1787,0.1791,0.1792,0.1778,0.1798,0.1787,0.1749,0.1758,0.1733,0.1728,0.177,0.1743,0.1749,0.1754,0.1855,0.1872,0.1886,0,0,0,0,0,0,0.1674,0.1706,0.1709,0.1742,0.177,0.1785,0.1805,0.1804,0.1812,0.1808,0.1774,0.1768,0.1798,0.1771,0.1744,0.1803,0.1747,0.1751,0.1826,0.1841,0.1854,0.1855,0.1689,0,0,0,0,0,0.1682,0.1708,0.1737,0.1765,0.1782,0.1796,0.1811,0.1816,0.1824,0.1827,0.1815,0.1808,0.1817,0.1817,0.1816,0.1842,0.1843,0.1869,0.1882,0.1893,0.1893,0.1937,0.1954,0.1774,0.1774,0.1774,0,0,0.1684,0.1709,0.1721,0.1766,0.1785,0.1819,0.1802,0.1837,0.1865,0.1819,0.1852,0.185,0.1835,0.1872,0.1883,0.1853,0.1953,0.1899,0.1909,0.1903,0.1944,0.1962,0.1977,0.1778,0.1777,0.1777,0,0,0.1705,0.1731,0.1759,0.1789,0.183,0.1846,0.1861,0.189,0.1905,0.194,0.1922,0.195,0.195,0.1962,0.1964,0.2046,0.2019,0.2046,0.2109,0.2153,0.2168,0.2181,0.224,0.2257,0.2051,0.2051,0.2052,0,0.1703,0.1747,0.1774,0.1812,0.1838,0.1861,0.1896,0.1925,0.1954,0.1976,0.1962,0.2004,0.1997,0.2048,0.2085,0.2075,0.2096,0.2051,0.217,0.2182,0.2194,0.225,0.2267,0.2058,0.2057,0.2056,0.2056,0,0.1743,0.1781,0.1806,0.1859,0.1895,0.1933,0.1977,0.2014,0.2033,0.2057,0.2116,0.2123,0.2145,0.2162,0.2148,0.2232,0.2222,0.2183,0.213,0.2219,0.2273,0.2289,0.2066,0.2064,0.2062,0.2061,0,0,0.1721,0.1812,0.1819,0.1849,0.1922,0.195,0.2018,0.208,0.2118,0.2164,0.222,0.2266,0.2274,0.2277,0.2277,0.2321,0.244,0.2294,0.2293,0.235,0.2558,0.2488,0.2498,0.242,0.2423,0.2425,0.2576,0,0.1739,0.1808,0.1855,0.1919,0.1957,0.2009,0.2068,0.2129,0.2177,0.2241,0.2283,0.2331,0.2317,0.2338,0.2389,0.2425,0.2482,0.2404,0.2463,0.2465,0.239,0.2513,0.2334,0.2446,0.2591,0.2594,0.2596,0,0.1756,0.1802,0.1864,0.1949,0.197,0.2011,0.2098,0.2153,0.2253,0.2297,0.2364,0.2395,0.2493,0.245,0.2576,0.2528,0.2557,0.2578,0.2583,0.2481,0.2424,0.2374,0.2469,0.2622,0.262,0.2618,0.2616,0,0.1715,0.1806,0.1851,0.188,0.198,0.2015,0.2065,0.2162,0.2227,0.233,0.2399,0.2489,0.2565,0.261,0.2678,0.2636,0.2805,0.2744,0.2711,0.2707,0.2545,0.2521,0.2824,0.2824,0.2824,0.2823,0.2823,0,0.1713,0.1746,0.1831,0.1853,0.191,0.1985,0.2058,0.2122,0.2242,0.2337,0.2419,0.2519,0.261,0.2715,0.2731,0.2795,0.2855,0.2752,0.2747,0.2583,0.2561,0.2684,0.2666,0.2829,0.2828,0.2827,0.2826,0,0.1661,0.172,0.1769,0.1862,0.1891,0.1924,0.2052,0.211,0.223,0.2361,0.2407,0.2592,0.2725,0.28,0.2907,0.2879,0.2919,0.2914,0.2727,0.2695,0.2781,0.2767,0.2902,0.2901,0.29,0.2899,0.2898,0,0.1641,0.1661,0.1749,0.1782,0.1821,0.1892,0.1949,0.2079,0.2162,0.2402,0.2471,0.2657,0.2745,0.2892,0.2904,0.2933,0.295,0.2759,0.2626,0.2811,0.2793,0.278,0.2768,0.2483,0.2479,0.2476,0.2473,0,0.1598,0.1625,0.1667,0.1738,0.1792,0.1865,0.1962,0.2029,0.2203,0.2307,0.2488,0.257,0.2748,0.2718,0.2764,0.274,0.2732,0.269,0.2964,0.247,0.2422,0.2402,0.2402,0.2444,0.2447,0.2449,0.2451,0.2452,0.1557,0.1578,0.1643,0.1705,0.1768,0.1841,0.1875,0.1978,0.2079,0.2212,0.2382,0.2436,0.2529,0.2498,0.246,0.2452,0.2605,0.2481,0.249,0.2502,0.2405,0.2355,0.235,0.2352,0.2354,0.2356,0.2357,0,0.1526,0.1572,0.1618,0.1696,0.1734,0.1797,0.1892,0.1877,0.1931,0.2071,0.2159,0.2047,0.2058,0.2147,0.2106,0.2111,0.2063,0.2017,0.1949,0.1982,0.201,0.1885,0.1694,0.1691,0.1688,0.1686,0,0,0.1519,0.1555,0.1588,0.1649,0.1701,0.1727,0.1758,0.1705,0.1763,0.1731,0.1769,0.1948,0.2089,0.1856,0.1855,0.1775,0.1849,0.1705,0.225,0.2205,0.2229,0.2307,0.2155,0,0,0,0,0]},{"header":{"parameterUnit":"m.s-1","parameterCategory":2,"la1":30.2991,"la2":30.254,"lo1":-89.0895,"lo2":-89.0444,"dy":0.0017,"dx":0.0017,"nx":28,"ny":28,"refTime":"2023-08-26T09:00:00:Z","depth":"2","parameterNumber":3,"parameterNumberName":"V-component_of_CURRENTS"},"data":[0,0,0,0,0,0,0,0,0,0,0,0,0,0,0,0,0,0,0,0,0,0,0,0,0,0,0,0,0,0,0,0,0,0,0,0,0,0,0,0,0,0,0,0,0,0,0,0,0,0,0,0,0,0,0,0,0,0,-0.0342,-0.0343,0,-0.041,-0.0411,-0.0412,-0.0456,-0.0456,-0.0457,-0.0457,-0.052,-0.0521,-0.0523,0,0,0,0,0,0,0,0,0,0,0,0,0,-0.0294,-0.0295,-0.0342,-0.0343,-0.0344,-0.041,-0.0411,-0.0412,-0.0456,-0.0456,-0.0457,-0.0457,-0.052,-0.0521,-0.0523,0,0,0,0,0,0,0,0,0,0,0,0,0,-0.0334,-0.0295,-0.0342,-0.0374,-0.0377,-0.041,-0.0411,-0.0412,-0.0456,-0.0456,-0.0457,-0.0457,-0.0519,-0.0521,-0.0523,-0.0528,0,0,-0.053,-0.0531,0,0,0,0,0,0,0,0,-0.0332,-0.0336,-0.0368,-0.0372,-0.0376,-0.0425,-0.0417,-0.0451,-0.0456,-0.0426,-0.0457,-0.0457,-0.0487,-0.0492,-0.0504,-0.0531,-0.0534,-0.053,-0.0531,-0.0532,-0.0533,0,0,0,0,0,0,0,-0.0329,-0.0333,-0.0369,-0.0369,-0.0373,-0.04,-0.0405,-0.0424,-0.0454,-0.0429,-0.0432,-0.0439,-0.0489,-0.0502,-0.0506,-0.0535,-0.053,-0.0532,-0.0533,-0.0534,-0.057,-0.057,0,0,0,0,0,0,-0.0317,-0.033,-0.0367,-0.0371,-0.0354,-0.04,-0.0406,-0.0409,-0.0454,-0.0461,-0.0439,-0.0441,-0.0498,-0.0504,-0.0508,-0.0517,-0.0532,-0.0534,-0.0535,-0.057,-0.057,-0.057,0,0,0,0,0,0,-0.0316,-0.032,-0.0364,-0.0353,-0.036,-0.04,-0.0403,-0.041,-0.0428,-0.0461,-0.0469,-0.045,-0.0499,-0.0505,-0.0524,-0.0519,-0.0535,-0.0537,-0.0571,-0.057,-0.057,-0.0533,0,0,0,0,0,0,-0.0314,-0.0319,-0.0321,-0.0352,-0.036,-0.0377,-0.0403,-0.0411,-0.0432,-0.0435,-0.0473,-0.048,-0.05,-0.0521,-0.0526,-0.0523,-0.0539,-0.0571,-0.0571,-0.057,-0.0535,-0.0532,-0.0529,0,0,0,0,0,-0.0312,-0.0301,-0.032,-0.0325,-0.036,-0.0376,-0.0383,-0.0413,-0.0432,-0.0433,-0.0461,-0.0479,-0.0521,-0.0522,-0.0529,-0.0526,-0.0572,-0.0571,-0.057,-0.0536,-0.0532,-0.0529,0,0,0,0,0,0,-0.0275,-0.0306,-0.0327,-0.0326,-0.035,-0.0383,-0.0389,-0.0413,-0.0437,-0.0444,-0.0477,-0.0484,-0.0499,-0.0516,-0.0517,-0.0534,-0.0548,-0.0549,-0.052,-0.0517,-0.0514,-0.05,-0.054,0,0,0,0,0,-0.027,-0.0276,-0.0308,-0.0309,-0.0319,-0.0357,-0.0371,-0.0392,-0.0417,-0.0429,-0.0456,-0.0482,-0.05,-0.0511,-0.053,-0.054,-0.0571,-0.0542,-0.0538,-0.0536,-0.0529,-0.0581,-0.0583,-0.0567,-0.0567,-0.0567,0,0,-0.0255,-0.0275,-0.0278,-0.0303,-0.0326,-0.0328,-0.0366,-0.0381,-0.0386,-0.0431,-0.0445,-0.0474,-0.0501,-0.0512,-0.0519,-0.0526,-0.0556,-0.0535,-0.0532,-0.0527,-0.0581,-0.0582,-0.0584,-0.0567,-0.0567,-0.0567,0,0,-0.0222,-0.0247,-0.024,-0.0257,-0.0289,-0.031,-0.0314,-0.035,-0.0369,-0.0388,-0.042,-0.0447,-0.0475,-0.0495,-0.0507,-0.0499,-0.0539,-0.0503,-0.0477,-0.0528,-0.053,-0.0532,-0.0572,-0.0578,-0.05,-0.05,-0.05,0,-0.0204,-0.0202,-0.024,-0.0237,-0.0246,-0.0297,-0.0288,-0.0312,-0.035,-0.0366,-0.0385,-0.0439,-0.0466,-0.048,-0.0477,-0.0492,-0.0525,-0.0489,-0.0525,-0.0528,-0.053,-0.0571,-0.0578,-0.0498,-0.0499,-0.0499,-0.0499,0,-0.0166,-0.0168,-0.0164,-0.0179,-0.0192,-0.0194,-0.023,-0.0249,-0.0284,-0.0315,-0.0348,-0.0391,-0.0424,-0.0436,-0.0454,-0.048,-0.0497,-0.0517,-0.0535,-0.053,-0.0572,-0.058,-0.0496,-0.0496,-0.0497,-0.0497,0,0,-0.0117,-0.0133,-0.0133,-0.0133,-0.0164,-0.0169,-0.0178,-0.0204,-0.0214,-0.0265,-0.028,-0.0325,-0.0367,-0.0382,-0.0416,-0.0456,-0.0507,-0.0489,-0.0493,-0.0529,-0.0615,-0.0583,-0.0589,-0.0538,-0.0539,-0.054,-0.0637,0,-0.0078,-0.0054,-0.0078,-0.0061,-0.0052,-0.0099,-0.0103,-0.0137,-0.0177,-0.0204,-0.0267,-0.0293,-0.034,-0.0357,-0.0408,-0.0474,-0.0526,-0.0478,-0.0614,-0.0618,-0.059,-0.0596,-0.0553,-0.0631,-0.0645,-0.0646,-0.0647,0,-0.0035,-0.0027,0.0001,-0.0007,-0.0009,-0.0011,-0.0037,-0.0047,-0.0101,-0.0133,-0.0184,-0.0233,-0.0289,-0.0334,-0.0463,-0.0432,-0.0522,-0.0582,-0.0588,-0.0574,-0.06,-0.0639,-0.0646,-0.0661,-0.066,-0.0659,-0.0658,0,0.0016,0.0025,0.0048,0.0046,0.0032,0.0026,0.0012,-0.0032,-0.0028,-0.0091,-0.0091,-0.0188,-0.0212,-0.0344,-0.0461,-0.0474,-0.06,-0.064,-0.0701,-0.07,-0.0696,-0.0692,-0.075,-0.075,-0.075,-0.075,-0.0749,0,0.0067,0.0082,0.007,0.0081,0.0101,0.0069,0.0079,0.0048,0.0028,0.0053,-0.0051,-0.0039,-0.0216,-0.03,-0.0443,-0.0577,-0.0597,-0.0694,-0.0723,-0.068,-0.0673,-0.0724,-0.072,-0.0753,-0.0752,-0.0752,-0.0751,0,0.0117,0.0112,0.0134,0.0126,0.0125,0.0133,0.0138,0.0153,0.0121,0.0156,0.0149,0.0072,-0.0036,-0.0208,-0.0403,-0.0525,-0.0677,-0.0727,-0.0652,-0.0669,-0.0756,-0.0748,-0.0822,-0.0822,-0.0821,-0.0821,-0.0821,0,0.0143,0.0161,0.017,0.0189,0.0183,0.0196,0.0215,0.0195,0.0231,0.0243,0.0281,0.0195,0.0151,-0.0118,-0.0351,-0.0598,-0.0646,-0.0713,-0.0733,-0.0742,-0.0763,-0.0756,-0.075,-0.0724,-0.0723,-0.0722,-0.0722,0,0.0185,0.0182,0.0201,0.0248,0.027,0.0317,0.0349,0.0397,0.0406,0.0442,0.0489,0.0453,0.0218,-0.0004,-0.0325,-0.0489,-0.0671,-0.0702,-0.0747,-0.0693,-0.0653,-0.0672,-0.0668,-0.0714,-0.0715,-0.0716,-0.0716,-0.0716,0.02,0.0225,0.0252,0.0299,0.035,0.0436,0.0487,0.055,0.0627,0.0696,0.0659,0.0625,0.0353,-0.0035,-0.0309,-0.059,-0.0613,-0.0719,-0.0721,-0.0724,-0.0676,-0.0635,-0.0685,-0.0686,-0.0686,-0.0687,-0.0687,0,0.0207,0.0246,0.0304,0.0365,0.0445,0.047,0.0581,0.0641,0.0753,0.0821,0.0848,0.0637,0.0372,0.0066,-0.0342,-0.0605,-0.0638,-0.0675,-0.0668,-0.0673,-0.0678,-0.0628,-0.0625,-0.0625,-0.0626,-0.0626,0,0,0.0207,0.0258,0.0301,0.0429,0.0497,0.0617,0.0695,0.0795,0.087,0.0938,0.094,0.0862,0.0484,0.0211,-0.0152,-0.0382,-0.0463,-0.0422,-0.0446,-0.0401,-0.0402,-0.0681,-0.0605,0,0,0,0,0]}],[{"header":{"parameterUnit":"m.s-1","parameterCategory":2,"la1":30.2991,"la2":30.254,"lo1":-89.0895,"lo2":-89.0444,"dy":0.0017,"dx":0.0017,"nx":28,"ny":28,"refTime":"2023-08-26T09:00:00:Z","depth":"4","parameterNumber":2,"parameterNumberName":"U-component_of_CURRENTS"},"data":[0,0,0,0,0,0,0,0,0,0,0,0,0,0,0,0,0,0,0,0,0,0,0,0,0,0,0,0,0,0,0,0,0,0,0,0,0,0,0,0,0,0,0,0,0,0,0,0,0,0,0,0,0,0,0,0,0,0,0.0838,0.0839,0,0.0912,0.0913,0.0914,0.0939,0.0938,0.0938,0.0938,0.101,0.1013,0.1015,0,0,0,0,0,0,0,0,0,0,0,0,0,0.0744,0.0746,0.0838,0.0839,0.084,0.0912,0.0913,0.0914,0.0939,0.0938,0.0938,0.0938,0.101,0.1012,0.1015,0,0,0,0,0,0,0,0,0,0,0,0,0,0.0797,0.0746,0.0838,0.0862,0.0865,0.0912,0.0913,0.0914,0.0939,0.0938,0.0938,0.0938,0.1009,0.1012,0.1015,0.1041,0,0,0.1025,0.1026,0,0,0,0,0,0,0,0,0.0794,0.08,0.0858,0.0861,0.0864,0.0917,0.0906,0.0957,0.0939,0.091,0.0938,0.0938,0.098,0.0986,0.0998,0.1044,0.1047,0.1025,0.1027,0.1028,0.1029,0,0,0,0,0,0,0,0.079,0.0798,0.0866,0.0859,0.0863,0.0878,0.0885,0.0916,0.0945,0.0912,0.0914,0.0925,0.0982,0.0995,0.1,0.1048,0.1025,0.1028,0.103,0.1031,0.1153,0.1154,0,0,0,0,0,0,0.0783,0.0794,0.0864,0.0869,0.0829,0.088,0.0888,0.0899,0.0944,0.0951,0.0925,0.0925,0.099,0.0997,0.1003,0.1089,0.1028,0.1031,0.1033,0.1152,0.1153,0.1155,0,0,0,0,0,0,0.0781,0.0788,0.0861,0.0834,0.0844,0.0882,0.0895,0.0901,0.0937,0.0954,0.0961,0.0956,0.099,0.0999,0.105,0.1089,0.1033,0.1036,0.115,0.1152,0.1154,0.1226,0,0,0,0,0,0,0.0778,0.0787,0.0803,0.0833,0.0846,0.0901,0.0895,0.0903,0.0942,0.0945,0.0983,0.0988,0.0991,0.1045,0.1053,0.1093,0.1038,0.1148,0.1151,0.1154,0.1222,0.123,0.1237,0,0,0,0,0,0.0774,0.0792,0.0803,0.0812,0.0863,0.0902,0.091,0.0934,0.0944,0.0965,0.0993,0.0988,0.1066,0.1049,0.1058,0.11,0.1147,0.115,0.1153,0.1218,0.1228,0.1237,0,0,0,0,0,0,0.0762,0.0798,0.081,0.084,0.0875,0.0907,0.0935,0.0951,0.0991,0.0999,0.1013,0.102,0.1073,0.1078,0.1059,0.1139,0.1104,0.1109,0.115,0.116,0.1167,0.1169,0.1041,0,0,0,0,0,0.0767,0.0792,0.0826,0.0855,0.0875,0.0911,0.0935,0.0952,0.0986,0.1004,0.1036,0.1065,0.109,0.1118,0.1136,0.1194,0.1193,0.1223,0.1231,0.1237,0.1244,0.1279,0.129,0.1165,0.1165,0.1165,0,0,0.0772,0.0795,0.0811,0.0855,0.0887,0.0921,0.0926,0.0969,0.1001,0.1006,0.1074,0.1093,0.1108,0.1161,0.1187,0.1176,0.1272,0.1241,0.1247,0.125,0.1283,0.1295,0.1306,0.1167,0.1167,0.1166,0,0,0.0785,0.0818,0.084,0.0871,0.092,0.0945,0.0963,0.1014,0.1043,0.1105,0.1109,0.1157,0.1211,0.123,0.1243,0.1308,0.1303,0.1317,0.1375,0.1409,0.1419,0.1429,0.1442,0.1452,0.1332,0.1332,0.1332,0,0.0784,0.0823,0.0854,0.0884,0.0917,0.0959,0.0993,0.103,0.1092,0.1126,0.1133,0.1222,0.1241,0.1297,0.1324,0.1327,0.1339,0.134,0.142,0.1429,0.1437,0.1449,0.1459,0.1336,0.1336,0.1335,0.1335,0,0.0813,0.0849,0.0872,0.0922,0.096,0.1002,0.105,0.1103,0.1151,0.1186,0.1263,0.1297,0.1351,0.1367,0.1374,0.1447,0.1433,0.1416,0.1397,0.1454,0.1463,0.1472,0.1341,0.134,0.1339,0.1338,0,0,0.0788,0.0872,0.0882,0.0913,0.0986,0.1016,0.1086,0.1156,0.1207,0.1275,0.1345,0.1406,0.1436,0.1453,0.1469,0.1513,0.1589,0.1507,0.1507,0.1522,0.1662,0.1585,0.1587,0.1596,0.1598,0.1599,0.1643,0,0.0803,0.086,0.0904,0.0969,0.1005,0.1069,0.1128,0.1195,0.1264,0.1343,0.1393,0.1463,0.1463,0.1509,0.1551,0.1576,0.1618,0.1578,0.1602,0.1603,0.1529,0.1597,0.1606,0.165,0.1652,0.1654,0.1655,0,0.081,0.0851,0.0914,0.0997,0.1021,0.1071,0.1179,0.1239,0.1346,0.1402,0.1482,0.1523,0.1606,0.1595,0.1671,0.165,0.1671,0.1683,0.1684,0.1594,0.1543,0.1581,0.1671,0.167,0.1669,0.1667,0.1666,0,0.0769,0.0855,0.0908,0.0937,0.1037,0.109,0.1158,0.1265,0.1327,0.1456,0.1516,0.1598,0.1666,0.1697,0.1739,0.172,0.1809,0.1773,0.1715,0.1709,0.1731,0.1721,0.183,0.183,0.1829,0.1829,0.1829,0,0.0757,0.0797,0.09,0.0926,0.1,0.1082,0.1173,0.1255,0.1375,0.1454,0.1551,0.1618,0.1704,0.1761,0.1768,0.1774,0.1831,0.1738,0.1725,0.1759,0.1751,0.1737,0.1726,0.1831,0.1831,0.183,0.183,0,0.0699,0.0769,0.0826,0.0939,0.098,0.1038,0.1175,0.1238,0.1365,0.1474,0.1525,0.1663,0.1747,0.1799,0.1867,0.1814,0.1821,0.1809,0.1851,0.1836,0.1686,0.1678,0.1736,0.1733,0.1732,0.173,0.1729,0,0.0674,0.07,0.0816,0.0859,0.0918,0.1016,0.1081,0.1221,0.1291,0.1483,0.1525,0.167,0.1745,0.1765,0.1828,0.1836,0.1819,0.1799,0.1737,0.1701,0.1682,0.1677,0.1671,0.1726,0.1725,0.1725,0.1725,0,0.0616,0.0666,0.0716,0.0806,0.0882,0.0956,0.1066,0.1107,0.1275,0.1391,0.1503,0.1572,0.1672,0.1722,0.1761,0.1754,0.1793,0.178,0.1782,0.1724,0.1689,0.1671,0.1668,0.1718,0.1719,0.172,0.172,0,0.0569,0.0593,0.0669,0.0748,0.0833,0.0894,0.0953,0.1052,0.1139,0.135,0.1384,0.1535,0.1662,0.1683,0.1705,0.1712,0.1679,0.1605,0.1616,0.1624,0.1569,0.1508,0.1485,0,0,0,0,0,0.0518,0.055,0.061,0.0695,0.0775,0.0829,0.0945,0.1009,0.1162,0.1209,0.13,0.1389,0.1477,0.1548,0.1532,0.1646,0.1671,0.1619,0.1587,0.1683,0.1691,0.1638,0,0,0,0,0,0,0.0487,0.0533,0.0581,0.0637,0.0686,0.0766,0.0836,0.0934,0.0967,0.1127,0.1178,0.1302,0.1397,0.1473,0.1506,0.1526,0.1477,0.171,0.1707,0.1679,0.1686,0.1692,0.164,0,0,0,0,0]},{"header":{"parameterUnit":"m.s-1","parameterCategory":2,"la1":30.2991,"la2":30.254,"lo1":-89.0895,"lo2":-89.0444,"dy":0.0017,"dx":0.0017,"nx":28,"ny":28,"refTime":"2023-08-26T09:00:00:Z","depth":"4","parameterNumber":3,"parameterNumberName":"V-component_of_CURRENTS"},"data":[0,0,0,0,0,0,0,0,0,0,0,0,0,0,0,0,0,0,0,0,0,0,0,0,0,0,0,0,0,0,0,0,0,0,0,0,0,0,0,0,0,0,0,0,0,0,0,0,0,0,0,0,0,0,0,0,0,0,0.0128,0.0127,0,0.0067,0.0066,0.0065,0.0035,0.0035,0.0035,0.0035,-0.0062,-0.0065,-0.0067,0,0,0,0,0,0,0,0,0,0,0,0,0,0.0158,0.0158,0.0128,0.0127,0.0126,0.0067,0.0066,0.0065,0.0035,0.0035,0.0035,0.0035,-0.0061,-0.0064,-0.0068,0,0,0,0,0,0,0,0,0,0,0,0,0,0.0125,0.0158,0.0128,0.0105,0.0102,0.0067,0.0066,0.0065,0.0035,0.0035,0.0035,0.0035,-0.006,-0.0064,-0.0068,-0.0094,0,0,-0.008,-0.0082,0,0,0,0,0,0,0,0,0.0127,0.0124,0.0109,0.0106,0.0103,0.0059,0.0041,0.001,0.0035,0.0059,0.0035,0.0035,-0.0024,-0.0031,-0.0044,-0.0099,-0.0103,-0.008,-0.0083,-0.0085,-0.0086,0,0,0,0,0,0,0,0.013,0.0126,0.0103,0.0108,0.0105,0.0077,0.0073,0.0035,0.0016,0.0057,0.0055,0.005,-0.0026,-0.004,-0.0046,-0.0105,-0.008,-0.0084,-0.0086,-0.0088,-0.0179,-0.0179,0,0,0,0,0,0,0.0142,0.0129,0.0105,0.0101,0.0117,0.0077,0.0072,0.0073,0.0017,0.001,0.005,0.0048,-0.0033,-0.0042,-0.005,-0.0079,-0.0085,-0.0088,-0.0091,-0.0179,-0.0179,-0.0179,0,0,0,0,0,0,0.0143,0.0141,0.0107,0.0114,0.0108,0.0077,0.0077,0.0071,0.0057,0.0012,0.0004,0.0042,-0.0033,-0.0044,-0.0079,-0.0083,-0.009,-0.0094,-0.0178,-0.0179,-0.0179,-0.0141,0,0,0,0,0,0,0.0144,0.0142,0.0147,0.0115,0.0108,0.0092,0.0077,0.007,0.0054,0.0052,0.0002,-0.0006,-0.0034,-0.0073,-0.0083,-0.0089,-0.0097,-0.0178,-0.0178,-0.0179,-0.0142,-0.014,-0.0138,0,0,0,0,0,0.0146,0.0153,0.0148,0.0145,0.0116,0.0092,0.0086,0.0063,0.0054,0.005,0.0018,-0.0005,-0.008,-0.0076,-0.0088,-0.0095,-0.0178,-0.0178,-0.0179,-0.0143,-0.014,-0.0138,0,0,0,0,0,0,0.0166,0.015,0.0143,0.0145,0.0123,0.0088,0.0082,0.0064,0.0035,0.0032,-0.001,-0.0021,-0.005,-0.0078,-0.0073,-0.012,-0.0132,-0.0134,-0.0101,-0.0099,-0.0096,-0.0079,-0.01,0,0,0,0,0,0.0175,0.0178,0.0153,0.0153,0.0145,0.0113,0.0101,0.0084,0.0054,0.0041,0.0007,-0.003,-0.006,-0.0083,-0.0113,-0.0146,-0.018,-0.0156,-0.0154,-0.0152,-0.0145,-0.0204,-0.0206,-0.0179,-0.0179,-0.0179,0,0,0.0183,0.0174,0.0175,0.0158,0.0139,0.0133,0.0106,0.0088,0.0082,0.0034,0.0012,-0.0023,-0.0066,-0.0095,-0.0111,-0.012,-0.0178,-0.0152,-0.015,-0.0144,-0.0204,-0.0207,-0.0209,-0.0179,-0.0179,-0.0179,0,0,0.02,0.0192,0.0201,0.0187,0.0165,0.0145,0.0142,0.0107,0.0091,0.0064,0.0032,-0.0005,-0.0055,-0.0086,-0.0108,-0.0114,-0.0161,-0.0125,-0.0107,-0.0164,-0.0166,-0.0169,-0.0218,-0.0226,-0.0128,-0.0128,-0.0128,0,0.0211,0.0221,0.0197,0.02,0.0195,0.0154,0.016,0.0136,0.0094,0.008,0.0065,-0.001,-0.0049,-0.0085,-0.0086,-0.0109,-0.0147,-0.0113,-0.0161,-0.0164,-0.0168,-0.0217,-0.0226,-0.0127,-0.0127,-0.0127,-0.0127,0,0.0232,0.0242,0.0243,0.0239,0.0227,0.0223,0.0192,0.0175,0.0148,0.012,0.0079,0.0023,-0.0021,-0.0042,-0.0068,-0.011,-0.013,-0.0148,-0.0166,-0.0168,-0.0221,-0.023,-0.0124,-0.0125,-0.0125,-0.0126,0,0,0.0254,0.0262,0.0263,0.0274,0.0251,0.0243,0.0232,0.0209,0.0199,0.0149,0.0126,0.0068,0.003,0.0003,-0.0042,-0.0094,-0.0156,-0.0129,-0.0133,-0.0174,-0.0281,-0.0252,-0.0261,-0.0186,-0.0188,-0.0189,-0.0308,0,0.028,0.0308,0.0299,0.0318,0.0329,0.0297,0.0292,0.0262,0.0224,0.0187,0.0122,0.0081,0.0049,0.0019,-0.0035,-0.0127,-0.018,-0.0122,-0.0275,-0.028,-0.0252,-0.027,-0.0193,-0.0316,-0.0318,-0.032,-0.0321,0,0.0305,0.0323,0.0355,0.0368,0.0368,0.0371,0.0353,0.0342,0.0281,0.0248,0.0193,0.0133,0.0054,0.0022,-0.0125,-0.0088,-0.0176,-0.0247,-0.0254,-0.0245,-0.0268,-0.0314,-0.0339,-0.0338,-0.0336,-0.0335,-0.0334,0,0.0335,0.036,0.0393,0.0397,0.0401,0.0408,0.0403,0.0362,0.0347,0.028,0.0248,0.0155,0.0091,-0.002,-0.0158,-0.0152,-0.0325,-0.034,-0.0396,-0.0395,-0.0402,-0.0398,-0.0446,-0.0446,-0.0445,-0.0445,-0.0445,0,0.0368,0.0392,0.0414,0.0432,0.0459,0.0448,0.0457,0.0434,0.0392,0.0367,0.0282,0.0232,0.0074,-0.0043,-0.0158,-0.0301,-0.0329,-0.0393,-0.0424,-0.0384,-0.0376,-0.041,-0.0404,-0.045,-0.0449,-0.0448,-0.0447,0,0.0391,0.041,0.0445,0.0468,0.0476,0.0492,0.0495,0.0487,0.0454,0.0413,0.0389,0.0267,0.0122,-0.003,-0.0228,-0.0301,-0.044,-0.0486,-0.0427,-0.0453,-0.0474,-0.0465,-0.0561,-0.0561,-0.0561,-0.0561,-0.0561,0,0.0404,0.0428,0.0469,0.0482,0.0495,0.0518,0.0523,0.0513,0.0501,0.0434,0.0406,0.027,0.0175,-0.007,-0.0228,-0.0439,-0.0463,-0.0532,-0.0501,-0.0465,-0.0487,-0.0477,-0.0469,-0.0561,-0.0561,-0.0561,-0.0561,0,0.0414,0.0431,0.0454,0.0486,0.0505,0.0532,0.0543,0.0544,0.0521,0.0497,0.0417,0.029,0.0126,-0.0059,-0.0224,-0.0374,-0.0482,-0.0533,-0.0534,-0.0505,-0.0466,-0.0485,-0.0477,-0.0561,-0.0561,-0.0561,-0.0561,0,0.0402,0.0414,0.0437,0.0462,0.0493,0.0517,0.0541,0.0528,0.0523,0.047,0.0443,0.028,0.0184,-0.0028,-0.018,-0.0319,-0.0353,-0.0386,-0.0395,-0.0397,-0.0305,-0.0228,-0.0278,0,0,0,0,0,0.0374,0.0374,0.0401,0.0427,0.0467,0.0491,0.0525,0.0544,0.0542,0.0496,0.0477,0.0335,0.0116,0.0013,-0.0123,-0.0195,-0.039,-0.0357,-0.0436,-0.056,-0.056,-0.0475,0,0,0,0,0,0,0.0342,0.036,0.0379,0.0391,0.0413,0.0453,0.0486,0.05,0.0481,0.0469,0.0355,0.031,0.0091,0.019,-0.0126,-0.017,-0.0234,-0.046,-0.0462,-0.056,-0.056,-0.056,-0.0473,0,0,0,0,0]}]]